Location: Godzisko
(49.9648°N, 19.4576°E)
Time: 07:54:51
(UTC+00:00)

ALOS - Pass Details

Date: 20 April 2021
Orbit: 683 x 685 km, 97.9° (Epoch: 07 May)

Event Time Altitude Azimuth Distance (km) Brightness Sun altitude
Rises 02:16:00 0° 21° (NNE) 3,060 6.7 -12.7°
Reaches altitude 10° 02:18:30 10° 33° (NNE) 2,139 6.0 -12.4°
Maximum altitude 02:22:38 30° 95° (E) 1,213 4.1 -11.8°
Drops below altitude 10° 02:26:43 10° 156° (SSE) 2,123 4.7 -11.3°
Sets 02:29:11 0° 167° (SSE) 3,033 5.4 -10.9°
